User: anonymous   Login
Location: Mascot Post Office (historical)
(40.2645°N, 99.5462°W)
Time: 14:06:00
(UTC+00:00)
Language:

USA 238 DEB - Orbit

View from above orbital plane
View from above orbital plane
View from above satellite
View from above satellite

Ground track
Ground track

The orbit data is extracted from the following two-line orbital elements,

1 38773U 12048P   20263.83938893 0.00000000  00000-0  00000-0 0    00
2 38773  63.4289 150.9512 0133890   0.8370 359.1629 13.40809306    06
Epoch (UTC): 19 September 2020 20:08:43
Eccentricity: 0.0133890
inclination: 63.4289°
perigee height: 1006 km
apogee height: 1206 km
right ascension of ascending node: 150.9512°
argument of perigee: 0.8370°
revolutions per day: 13.40809306
mean anomaly at epoch: 359.1629°
orbit number at epoch: 0

The dashed part of the orbit path shows where the satellite is in the earth's shadow,  

DLR